Location: Crescent
(42.8242°N, 73.7329°W)
Time: 17:56:14
(UTC+00:00)

Vanguard 1 Rocket - Pass Details

Date: 23 February 2026
Orbit: 653 x 4214 km, 34.3° (Epoch: 8 March)

Event Time Altitude Azimuth Distance (km) Brightness Sun altitude
Rises 17:38:44 0° 243° (WSW) 3,764 11.0 37.1°
Reaches altitude 10° 17:40:56 10° 237° (WSW) 3,070 10.8 37.0°
Maximum altitude 17:48:21 51° 164° (SSE) 2,095 10.7 36.8°
Drops below altitude 10° 18:02:33 10° 95° (E) 5,691 11.4 36.1°
Sets 18:08:19 0° 92° (E) 7,264 11.9 35.8°
